contact:dominique.lefevre@mio.osupytheas.fr, maurice.libes@osupytheas.fr, didier.mallarino@osupytheas.fr
Project:EMSO http://www.emso-fr.org/EMSO-France
Depth: 2436.0 m
Title:EMSO Ligure Ouest : Data MII capteur AQUADOPP
Date,Latitude,Longitude,X_East,Y_North,Z_Up,Amplitude_X,Amplitude_Y,Amplitude_Z,Batterie,SoundSpeed,Heading,Pitch,Roll,Pressure,TIS,Speed,Direction
, degrees North, degrees East, m.s-1, m.s-1,m.s-1, 1, 1, 1, Volt, m.s-1, degree, degree, degree, dbar, degree_C, m.s-1, degree
2021-06-29T00:04:02,42.805,6.029,-0.049,-0.035,0.002,106.0,105.0,103.0,13.4,1505.2,326.1,-0.8,1.8,2470.667,13.28,0.06,234.5
2021-06-29T00:07:02,42.805,6.029,-0.061,-0.015,-0.028,106.0,105.0,103.0,13.4,1505.2,329.2,-0.7,1.9,2470.677,13.28,0.062,256.2
2021-06-29T00:10:02,42.805,6.029,-0.038,-0.039,-0.002,106.0,105.0,103.0,13.3,1505.2,326.0,-0.8,1.8,2470.654,13.28,0.054,224.3
2021-06-29T00:13:03,42.805,6.029,-0.022,-0.019,-0.02,106.0,106.0,103.0,13.4,1505.2,325.3,-0.8,1.8,2470.633,13.28,0.029,229.2
2021-06-29T00:16:03,42.805,6.029,-0.018,-0.016,-0.005,106.0,105.0,103.0,13.3,1505.2,325.5,-0.8,1.8,2470.635,13.28,0.024,228.4
2021-06-29T00:19:02,42.805,6.029,-0.032,-0.003,0.008,105.0,105.0,103.0,13.3,1505.2,329.8,-0.7,1.8,2470.621,13.28,0.032,264.6
2021-06-29T00:22:02,42.805,6.029,-0.063,-0.012,-0.008,107.0,105.0,103.0,13.4,1505.2,326.5,-0.7,1.8,2470.629,13.28,0.064,259.2
2021-06-29T00:25:03,42.805,6.029,-0.039,-0.033,-0.01,106.0,104.0,103.0,13.4,1505.2,328.2,-0.7,1.8,2470.613,13.28,0.051,229.8
2021-06-29T00:28:03,42.805,6.029,-0.043,-0.035,-0.005,107.0,105.0,103.0,13.3,1505.2,325.7,-0.8,1.9,2470.636,13.28,0.055,230.9
2021-06-29T00:31:02,42.805,6.029,-0.038,-0.027,-0.02,106.0,107.0,103.0,13.4,1505.2,328.7,-0.8,1.8,2470.652,13.28,0.046,234.6
2021-06-29T00:34:02,42.805,6.029,-0.032,-0.037,-0.003,105.0,107.0,102.0,13.3,1505.2,326.8,-0.7,1.8,2470.611,13.28,0.048,220.9
2021-06-29T00:37:02,42.805,6.029,-0.045,-0.028,0.0,105.0,105.0,103.0,13.4,1505.2,325.4,-0.8,1.9,2470.64,13.28,0.053,238.1
2021-06-29T00:40:02,42.805,6.029,-0.029,-0.009,-0.015,105.0,106.0,104.0,13.4,1505.2,330.1,-0.8,1.8,2470.606,13.28,0.03,252.8
2021-06-29T00:43:02,42.805,6.029,-0.036,-0.016,0.0,107.0,105.0,103.0,13.3,1505.2,328.6,-0.8,1.8,2470.646,13.28,0.039,246.0
2021-06-29T00:46:02,42.805,6.029,-0.027,-0.015,-0.007,107.0,106.0,104.0,13.3,1505.2,330.2,-0.7,1.8,2470.568,13.28,0.03,240.9
2021-06-29T00:49:03,42.805,6.029,-0.031,-0.033,-0.019,106.0,105.0,105.0,13.4,1505.2,325.1,-0.8,1.8,2470.642,13.28,0.045,223.2
2021-06-29T00:52:02,42.805,6.029,-0.032,0.0,0.019,105.0,106.0,103.0,13.3,1505.2,328.4,-0.7,1.8,2470.618,13.28,0.032,270.0
2021-06-29T00:55:03,42.805,6.029,-0.054,-0.015,0.0,106.0,105.0,103.0,13.3,1505.2,328.7,-0.8,1.9,2470.614,13.28,0.056,254.5
2021-06-29T00:58:03,42.805,6.029,-0.039,-0.012,-0.004,106.0,106.0,103.0,13.4,1505.2,329.3,-0.7,1.8,2470.585,13.28,0.04,252.9
2021-06-29T01:04:02,42.805,6.029,-0.031,-0.033,-0.02,107.0,107.0,103.0,13.4,1505.2,324.6,-0.8,1.8,2470.603,13.28,0.045,223.2
2021-06-29T01:07:02,42.805,6.029,-0.035,-0.03,0.009,106.0,106.0,105.0,13.4,1505.2,329.4,-0.8,1.8,2470.581,13.28,0.046,229.4
2021-06-29T01:10:03,42.805,6.029,-0.033,-0.019,-0.013,106.0,105.0,104.0,13.4,1505.2,328.2,-0.8,1.8,2470.609,13.28,0.038,240.1
2021-06-29T01:13:03,42.805,6.029,-0.055,-0.041,-0.017,108.0,106.0,103.0,13.4,1505.2,329.9,-0.7,1.8,2470.641,13.28,0.068,233.3
2021-06-29T01:16:02,42.805,6.029,-0.026,-0.009,-0.011,107.0,105.0,103.0,13.3,1505.2,324.7,-0.8,1.8,2470.637,13.28,0.027,250.9
2021-06-29T01:19:02,42.805,6.029,-0.032,-0.033,0.011,106.0,106.0,103.0,13.3,1505.2,325.3,-0.8,1.8,2470.603,13.28,0.045,224.1
2021-06-29T01:22:02,42.805,6.029,-0.04,-0.013,-0.004,107.0,105.0,104.0,13.4,1505.2,329.0,-0.7,1.8,2470.548,13.28,0.042,252.0
2021-06-29T01:25:03,42.805,6.029,-0.053,-0.029,-0.03,105.0,106.0,103.0,13.4,1505.2,326.8,-0.8,1.9,2470.594,13.28,0.06,241.3
2021-06-29T01:28:03,42.805,6.029,-0.064,-0.004,0.007,107.0,104.0,103.0,13.4,1505.2,328.5,-0.8,1.8,2470.569,13.28,0.064,266.4
2021-06-29T01:31:03,42.805,6.029,-0.054,0.004,-0.013,107.0,105.0,102.0,13.4,1505.2,326.6,-0.8,1.8,2470.563,13.28,0.054,274.2
2021-06-29T01:34:03,42.805,6.029,-0.048,-0.006,-0.018,106.0,106.0,103.0,13.4,1505.2,327.4,-0.8,1.9,2470.568,13.28,0.048,262.9
2021-06-29T01:37:02,42.805,6.029,-0.046,-0.02,-0.021,105.0,106.0,104.0,13.4,1505.2,326.7,-0.7,1.8,2470.598,13.28,0.05,246.5
2021-06-29T01:40:03,42.805,6.029,-0.034,-0.026,0.036,106.0,105.0,103.0,13.4,1505.2,325.3,-0.8,1.8,2470.557,13.28,0.042,232.6
2021-06-29T01:43:03,42.805,6.029,-0.05,-0.016,-0.031,107.0,106.0,104.0,13.4,1505.2,327.3,-0.7,1.8,2470.593,13.28,0.052,252.3
2021-06-29T01:46:03,42.805,6.029,-0.05,-0.019,0.0,106.0,107.0,103.0,13.4,1505.2,325.8,-0.8,1.9,2470.578,13.28,0.053,249.2
2021-06-29T01:49:03,42.805,6.029,-0.027,-0.002,-0.034,106.0,106.0,103.0,13.4,1505.2,324.8,-0.7,1.8,2470.566,13.28,0.027,265.8
2021-06-29T01:52:02,42.805,6.029,-0.05,-0.027,-0.043,107.0,106.0,103.0,13.3,1505.2,325.6,-0.7,1.8,2470.562,13.28,0.056,241.6
2021-06-29T01:55:03,42.805,6.029,-0.046,-0.01,-0.015,107.0,105.0,104.0,13.3,1505.2,326.2,-0.8,1.8,2470.562,13.28,0.047,257.7
2021-06-29T01:58:03,42.805,6.029,-0.039,-0.008,-0.003,107.0,106.0,103.0,13.4,1505.2,326.2,-0.8,1.8,2470.543,13.28,0.039,258.4
2021-06-29T02:04:02,42.805,6.029,-0.019,-0.006,-0.006,107.0,106.0,104.0,13.3,1505.2,326.5,-0.8,1.8,2470.574,13.28,0.019,252.5
2021-06-29T02:07:02,42.805,6.029,-0.05,-0.007,-0.024,105.0,105.0,104.0,13.3,1505.2,328.0,-0.7,1.8,2470.563,13.28,0.05,262.0
2021-06-29T02:10:03,42.805,6.029,-0.037,-0.004,0.004,106.0,106.0,104.0,13.3,1505.2,325.6,-0.7,1.8,2470.559,13.28,0.037,263.8
2021-06-29T02:13:03,42.805,6.029,-0.047,-0.01,0.008,107.0,105.0,104.0,13.4,1505.2,326.8,-0.8,1.8,2470.581,13.28,0.048,258.0
2021-06-29T02:16:03,42.805,6.029,-0.051,-0.02,0.01,106.0,106.0,104.0,13.4,1505.2,325.4,-0.7,1.8,2470.545,13.28,0.054,248.6
2021-06-29T02:19:03,42.805,6.029,-0.055,-0.015,-0.048,108.0,106.0,103.0,13.4,1505.2,325.2,-0.7,1.8,2470.526,13.28,0.057,254.7
2021-06-29T02:22:02,42.805,6.029,-0.044,-0.019,0.016,106.0,106.0,103.0,13.4,1505.2,325.8,-0.7,1.8,2470.505,13.28,0.047,246.6
2021-06-29T02:25:03,42.805,6.029,-0.041,-0.004,0.027,107.0,106.0,103.0,13.4,1505.2,329.1,-0.7,1.9,2470.556,13.28,0.041,264.4
2021-06-29T02:28:03,42.805,6.029,-0.051,-0.002,0.006,107.0,106.0,104.0,13.3,1505.2,330.5,-0.8,1.8,2470.554,13.28,0.051,267.8
2021-06-29T02:31:03,42.805,6.029,-0.061,-0.022,-0.012,107.0,106.0,103.0,13.4,1505.2,326.8,-0.8,1.8,2470.521,13.28,0.064,250.2
2021-06-29T02:34:03,42.805,6.029,-0.046,-0.014,-0.001,105.0,105.0,103.0,13.4,1505.2,328.4,-0.8,1.8,2470.533,13.28,0.048,253.1
2021-06-29T02:37:02,42.805,6.029,-0.026,-0.017,0.0,106.0,106.0,104.0,13.3,1505.2,325.7,-0.7,1.8,2470.532,13.28,0.031,236.8
2021-06-29T02:40:03,42.805,6.029,-0.042,0.015,-0.005,106.0,106.0,103.0,13.4,1505.2,326.1,-0.7,1.8,2470.543,13.28,0.044,289.6
2021-06-29T02:43:03,42.805,6.029,-0.045,-0.007,0.0,106.0,106.0,103.0,13.4,1505.2,328.7,-0.8,1.8,2470.529,13.28,0.045,261.2
2021-06-29T02:46:03,42.805,6.029,-0.032,-0.002,-0.003,106.0,105.0,105.0,13.3,1505.2,328.4,-0.7,1.8,2470.552,13.28,0.032,266.4
2021-06-29T02:49:03,42.805,6.029,-0.047,0.001,0.015,106.0,108.0,103.0,13.4,1505.2,327.2,-0.8,1.8,2470.521,13.28,0.047,271.2
2021-06-29T02:52:02,42.805,6.029,-0.029,0.002,-0.001,107.0,105.0,104.0,13.4,1505.2,329.2,-0.8,1.8,2470.498,13.28,0.029,273.9
2021-06-29T02:55:03,42.805,6.029,-0.029,-0.018,-0.012,107.0,106.0,103.0,13.4,1505.2,327.9,-0.8,1.8,2470.5,13.28,0.034,238.2
2021-06-29T02:58:03,42.805,6.029,-0.04,-0.002,-0.002,106.0,106.0,103.0,13.3,1505.2,330.4,-0.7,1.9,2470.508,13.28,0.04,267.1
2021-06-29T03:04:02,42.805,6.029,-0.04,-0.019,-0.001,107.0,106.0,104.0,13.4,1505.2,330.3,-0.7,1.8,2470.579,13.28,0.044,244.6
2021-06-29T03:07:02,42.805,6.029,-0.054,-0.002,-0.012,107.0,107.0,103.0,13.3,1505.2,328.6,-0.7,1.8,2470.539,13.28,0.054,267.9
2021-06-29T03:10:03,42.805,6.029,-0.044,0.002,-0.036,105.0,107.0,104.0,13.4,1505.2,327.4,-0.8,1.8,2470.535,13.28,0.044,272.6
2021-06-29T03:13:03,42.805,6.029,-0.039,-0.011,-0.011,106.0,105.0,103.0,13.3,1505.2,325.2,-0.7,1.8,2470.544,13.28,0.04,254.3
2021-06-29T03:16:03,42.805,6.029,-0.036,0.009,-0.019,107.0,106.0,104.0,13.4,1505.2,330.4,-0.7,1.8,2470.493,13.28,0.037,284.0
2021-06-29T03:19:03,42.805,6.029,-0.04,-0.018,-0.02,108.0,107.0,103.0,13.4,1505.2,327.9,-0.7,1.8,2470.497,13.28,0.043,245.8
2021-06-29T03:22:02,42.805,6.029,-0.058,0.021,-0.005,108.0,106.0,103.0,13.4,1505.2,324.9,-0.7,1.8,2470.515,13.28,0.061,289.9
2021-06-29T03:25:03,42.805,6.029,-0.054,-0.003,0.006,106.0,106.0,104.0,13.3,1505.2,328.2,-0.8,1.8,2470.465,13.28,0.054,266.8
2021-06-29T03:28:03,42.805,6.029,-0.043,-0.023,-0.003,106.0,106.0,104.0,13.4,1505.2,329.9,-0.7,1.8,2470.528,13.28,0.048,241.9
2021-06-29T03:31:03,42.805,6.029,-0.032,0.001,0.008,106.0,105.0,104.0,13.4,1505.2,327.3,-0.7,1.8,2470.485,13.28,0.032,271.8
2021-06-29T03:34:03,42.805,6.029,-0.028,-0.01,-0.002,106.0,104.0,103.0,13.4,1505.2,328.6,-0.7,1.8,2470.496,13.28,0.029,250.4
2021-06-29T03:37:02,42.805,6.029,-0.015,-0.019,0.0,107.0,105.0,103.0,13.3,1505.2,325.8,-0.8,1.8,2470.492,13.28,0.024,218.3
2021-06-29T03:40:03,42.805,6.029,-0.057,-0.005,-0.022,106.0,106.0,104.0,13.4,1505.2,328.6,-0.8,1.8,2470.493,13.28,0.057,265.0
2021-06-29T03:43:03,42.805,6.029,-0.046,-0.002,-0.047,107.0,107.0,104.0,13.3,1505.2,325.4,-0.8,1.8,2470.495,13.28,0.046,267.5
2021-06-29T03:46:03,42.805,6.029,-0.059,0.013,0.0,106.0,105.0,103.0,13.4,1505.2,328.4,-0.8,1.8,2470.489,13.28,0.06,282.4
2021-06-29T03:49:03,42.805,6.029,-0.049,0.006,0.001,107.0,106.0,102.0,13.3,1505.2,329.6,-0.8,1.8,2470.472,13.28,0.049,277.0
2021-06-29T03:52:02,42.805,6.029,-0.055,0.002,-0.019,106.0,105.0,104.0,13.4,1505.2,326.1,-0.8,1.8,2470.484,13.28,0.055,272.1
2021-06-29T03:55:03,42.805,6.029,-0.047,-0.012,0.008,107.0,106.0,105.0,13.3,1505.2,327.1,-0.7,1.8,2470.493,13.28,0.048,255.7
2021-06-29T03:58:03,42.805,6.029,-0.035,-0.026,0.027,107.0,106.0,103.0,13.4,1505.2,324.5,-0.7,1.8,2470.503,13.28,0.043,233.4
2021-06-29T04:04:02,42.805,6.029,-0.059,0.003,-0.012,106.0,106.0,103.0,13.3,1505.2,328.8,-0.8,1.8,2470.542,13.28,0.059,272.9
2021-06-29T04:07:02,42.805,6.029,-0.026,-0.012,-0.035,107.0,106.0,104.0,13.3,1505.2,327.4,-0.7,1.8,2470.452,13.28,0.028,245.2
2021-06-29T04:10:03,42.805,6.029,-0.04,-0.023,0.009,107.0,107.0,103.0,13.4,1505.2,326.1,-0.8,1.8,2470.483,13.28,0.046,240.1
2021-06-29T04:13:03,42.805,6.029,-0.034,-0.02,0.009,106.0,105.0,103.0,13.4,1505.2,328.0,-0.8,1.8,2470.443,13.28,0.039,239.5
2021-06-29T04:16:03,42.805,6.029,-0.042,0.003,-0.017,107.0,106.0,103.0,13.4,1505.2,327.2,-0.8,1.8,2470.5,13.28,0.042,274.1
2021-06-29T04:19:03,42.805,6.029,-0.068,-0.014,0.014,106.0,107.0,104.0,13.3,1505.2,327.2,-0.7,1.8,2470.511,13.28,0.069,258.4
2021-06-29T04:22:03,42.805,6.029,-0.05,0.012,0.004,107.0,107.0,103.0,13.3,1505.2,327.1,-0.7,1.8,2470.425,13.28,0.051,283.5
2021-06-29T04:25:03,42.805,6.029,-0.037,-0.017,-0.001,107.0,105.0,104.0,13.3,1505.2,327.7,-0.8,1.8,2470.492,13.28,0.04,245.3
2021-06-29T04:28:03,42.805,6.029,-0.056,-0.002,-0.016,105.0,106.0,103.0,13.4,1505.2,325.3,-0.7,1.9,2470.456,13.28,0.056,268.0
2021-06-29T04:31:03,42.805,6.029,-0.047,-0.012,0.004,106.0,106.0,103.0,13.3,1505.2,329.4,-0.7,1.8,2470.484,13.28,0.048,255.7
2021-06-29T04:34:03,42.805,6.029,-0.049,-0.006,-0.014,107.0,107.0,104.0,13.4,1505.2,326.5,-0.7,1.9,2470.483,13.28,0.049,263.0
2021-06-29T04:37:03,42.805,6.029,-0.062,-0.001,-0.001,106.0,105.0,103.0,13.4,1505.2,328.1,-0.8,1.8,2470.462,13.28,0.062,269.1
2021-06-29T04:40:03,42.805,6.029,-0.041,0.0,-0.023,106.0,106.0,103.0,13.4,1505.2,325.1,-0.8,1.8,2470.469,13.28,0.041,270.0
2021-06-29T04:43:03,42.805,6.029,-0.048,-0.006,-0.004,107.0,106.0,103.0,13.3,1505.2,328.3,-0.7,1.8,2470.449,13.28,0.048,262.9
2021-06-29T04:46:03,42.805,6.029,-0.05,-0.015,-0.008,106.0,107.0,104.0,13.4,1505.2,329.0,-0.8,1.9,2470.428,13.28,0.052,253.3
2021-06-29T04:49:03,42.805,6.029,-0.04,0.003,0.0,106.0,107.0,104.0,13.4,1505.2,328.6,-0.7,1.8,2470.486,13.28,0.04,274.3
2021-06-29T04:52:03,42.805,6.029,-0.045,-0.021,-0.022,106.0,106.0,103.0,13.4,1505.2,326.8,-0.7,1.8,2470.465,13.28,0.049,245.0
2021-06-29T04:55:03,42.805,6.029,-0.052,0.008,-0.014,106.0,106.0,104.0,13.4,1505.2,327.9,-0.8,1.8,2470.473,13.28,0.052,278.7
2021-06-29T04:58:03,42.805,6.029,-0.057,-0.022,0.004,106.0,106.0,104.0,13.4,1505.2,326.3,-0.7,1.8,2470.433,13.28,0.061,248.9
2021-06-29T05:04:02,42.805,6.029,-0.044,0.0,-0.022,106.0,106.0,104.0,13.4,1505.2,325.6,-0.8,1.8,2470.468,13.28,0.044,270.0
2021-06-29T05:07:03,42.805,6.029,-0.038,0.0,-0.004,107.0,106.0,102.0,13.4,1505.2,326.2,-0.7,1.8,2470.491,13.28,0.038,270.0
2021-06-29T05:10:03,42.805,6.029,-0.06,-0.007,-0.056,107.0,105.0,104.0,13.3,1505.2,329.6,-0.7,1.8,2470.47,13.28,0.06,263.3
2021-06-29T05:13:03,42.805,6.029,-0.05,0.004,0.0,108.0,105.0,104.0,13.4,1505.2,325.4,-0.7,1.8,2470.452,13.28,0.05,274.6
2021-06-29T05:16:03,42.805,6.029,-0.042,-0.007,-0.022,107.0,106.0,104.0,13.4,1505.2,324.8,-0.8,1.9,2470.489,13.28,0.042,260.5
2021-06-29T05:19:03,42.805,6.029,-0.03,0.006,0.024,107.0,105.0,104.0,13.4,1505.2,330.5,-0.8,1.8,2470.44,13.28,0.03,281.3
2021-06-29T05:22:03,42.805,6.029,-0.044,-0.003,0.0,106.0,107.0,103.0,13.4,1505.2,326.1,-0.7,1.8,2470.464,13.28,0.044,266.1
2021-06-29T05:25:03,42.805,6.029,-0.046,-0.016,0.01,106.0,106.0,103.0,13.4,1505.2,326.3,-0.8,1.8,2470.475,13.28,0.048,250.8
2021-06-29T05:28:03,42.805,6.029,-0.041,0.001,-0.008,105.0,106.0,103.0,13.4,1505.2,326.2,-0.8,1.8,2470.441,13.28,0.041,271.4
2021-06-29T05:31:03,42.805,6.029,-0.063,0.007,0.0,106.0,105.0,103.0,13.4,1505.2,328.5,-0.8,1.8,2470.449,13.28,0.063,276.3
2021-06-29T05:34:03,42.805,6.029,-0.053,0.003,0.0,106.0,106.0,103.0,13.3,1505.2,327.3,-0.7,1.8,2470.464,13.28,0.053,273.2
2021-06-29T05:37:03,42.805,6.029,-0.071,0.004,-0.011,107.0,106.0,103.0,13.3,1505.2,326.6,-0.7,1.8,2470.444,13.28,0.071,273.2
2021-06-29T05:40:03,42.805,6.029,-0.045,-0.022,-0.007,106.0,104.0,104.0,13.3,1505.2,325.6,-0.7,1.8,2470.445,13.28,0.05,243.9
2021-06-29T05:43:03,42.805,6.029,-0.036,-0.002,0.006,106.0,105.0,103.0,13.4,1505.2,327.9,-0.8,1.8,2470.485,13.28,0.036,266.8
2021-06-29T05:46:03,42.805,6.029,-0.065,0.0,0.0,106.0,106.0,103.0,13.4,1505.2,328.3,-0.7,1.8,2470.472,13.28,0.064,270.0
2021-06-29T05:49:03,42.805,6.029,-0.047,-0.004,0.0,106.0,106.0,103.0,13.3,1505.2,330.0,-0.8,1.8,2470.427,13.28,0.047,265.1
2021-06-29T05:52:03,42.805,6.029,-0.06,0.0,-0.038,106.0,105.0,102.0,13.3,1505.2,325.0,-0.8,1.8,2470.452,13.28,0.06,270.0
2021-06-29T05:55:03,42.805,6.029,-0.052,-0.022,-0.019,106.0,106.0,104.0,13.4,1505.2,327.1,-0.8,1.8,2470.453,13.28,0.056,247.1
2021-06-29T05:58:03,42.805,6.029,-0.036,0.007,0.017,106.0,107.0,103.0,13.4,1505.2,329.9,-0.8,1.8,2470.484,13.28,0.036,281.0
2021-06-29T06:04:03,42.805,6.029,-0.043,0.0,0.025,107.0,106.0,104.0,13.4,1505.2,329.5,-0.8,1.8,2470.469,13.28,0.043,270.0
2021-06-29T06:07:03,42.805,6.029,-0.046,-0.012,0.008,107.0,105.0,104.0,13.4,1505.2,324.7,-0.7,1.8,2470.457,13.28,0.047,255.4
2021-06-29T06:10:03,42.805,6.029,-0.043,0.017,-0.006,106.0,107.0,103.0,13.4,1505.2,326.4,-0.7,1.8,2470.475,13.28,0.046,291.6
2021-06-29T06:13:03,42.805,6.029,-0.036,-0.006,-0.015,106.0,106.0,104.0,13.3,1505.2,329.5,-0.8,1.8,2470.446,13.28,0.036,260.5
2021-06-29T06:16:03,42.805,6.029,-0.056,-0.003,-0.016,107.0,104.0,104.0,13.3,1505.2,326.6,-0.7,1.8,2470.447,13.28,0.056,266.9
2021-06-29T06:19:03,42.805,6.029,-0.033,-0.015,-0.029,106.0,105.0,103.0,13.4,1505.2,324.8,-0.8,1.8,2470.472,13.28,0.036,245.6
2021-06-29T06:22:03,42.805,6.029,-0.057,-0.007,-0.004,107.0,105.0,104.0,13.4,1505.2,324.7,-0.7,1.9,2470.45,13.28,0.057,263.0
2021-06-29T06:25:03,42.805,6.029,-0.034,-0.01,0.009,106.0,106.0,103.0,13.4,1505.2,325.8,-0.7,1.8,2470.428,13.28,0.035,253.6
2021-06-29T06:28:03,42.805,6.029,-0.047,-0.004,-0.043,106.0,104.0,103.0,13.4,1505.2,329.1,-0.7,1.8,2470.429,13.28,0.047,265.1
2021-06-29T06:31:03,42.805,6.029,-0.043,-0.013,-0.01,107.0,106.0,103.0,13.4,1505.2,326.3,-0.7,1.8,2470.452,13.28,0.044,253.2
2021-06-29T06:34:03,42.805,6.029,-0.041,-0.006,-0.016,107.0,106.0,103.0,13.4,1505.2,328.7,-0.8,1.8,2470.498,13.28,0.041,261.7
2021-06-29T06:37:03,42.805,6.029,-0.059,-0.002,-0.014,105.0,105.0,103.0,13.4,1505.2,325.1,-0.8,1.8,2470.492,13.28,0.059,268.1
2021-06-29T06:40:03,42.805,6.029,-0.045,-0.012,0.013,106.0,105.0,104.0,13.4,1505.2,329.7,-0.8,1.8,2470.47,13.28,0.046,255.1
2021-06-29T06:43:03,42.805,6.029,-0.042,-0.024,-0.023,106.0,105.0,104.0,13.4,1505.2,325.6,-0.7,1.8,2470.44,13.28,0.048,240.3
2021-06-29T06:46:03,42.805,6.029,-0.059,0.0,-0.024,105.0,106.0,103.0,13.3,1505.2,328.8,-0.8,1.8,2470.462,13.28,0.058,270.0
2021-06-29T06:49:03,42.805,6.029,-0.048,-0.002,-0.018,106.0,105.0,104.0,13.3,1505.2,324.6,-0.8,1.9,2470.451,13.28,0.048,267.6
2021-06-29T06:52:03,42.805,6.029,-0.031,-0.002,-0.016,106.0,105.0,103.0,13.4,1505.2,326.4,-0.7,1.9,2470.485,13.28,0.031,266.3
2021-06-29T06:55:03,42.805,6.029,-0.069,0.006,-0.014,106.0,105.0,102.0,13.4,1505.2,329.2,-0.8,1.8,2470.436,13.28,0.069,275.0
2021-06-29T06:58:03,42.805,6.029,-0.033,-0.004,-0.026,105.0,106.0,103.0,13.4,1505.2,325.6,-0.7,1.8,2470.442,13.28,0.033,263.1
2021-06-29T07:04:02,42.805,6.029,-0.041,-0.012,0.0,106.0,106.0,103.0,13.4,1505.2,325.3,-0.7,1.8,2470.496,13.28,0.042,253.7
2021-06-29T07:07:03,42.805,6.029,-0.041,-0.011,0.003,107.0,106.0,103.0,13.4,1505.2,328.2,-0.8,1.8,2470.475,13.28,0.042,255.0
2021-06-29T07:10:03,42.805,6.029,-0.066,-0.018,-0.01,105.0,105.0,102.0,13.4,1505.2,329.1,-0.7,1.8,2470.499,13.28,0.068,254.7
2021-06-29T07:13:03,42.805,6.029,-0.061,0.004,-0.023,105.0,104.0,104.0,13.4,1505.2,328.7,-0.8,1.8,2470.45,13.28,0.061,273.7
2021-06-29T07:16:03,42.805,6.029,-0.066,-0.005,-0.003,106.0,105.0,103.0,13.4,1505.2,325.7,-0.7,1.8,2470.461,13.28,0.066,265.7
2021-06-29T07:19:03,42.805,6.029,-0.052,0.015,-0.007,106.0,105.0,103.0,13.4,1505.2,329.8,-0.7,1.8,2470.432,13.28,0.054,286.1
2021-06-29T07:22:03,42.805,6.029,-0.041,0.0,-0.009,105.0,105.0,103.0,13.3,1505.2,326.4,-0.8,1.8,2470.477,13.28,0.041,270.0
2021-06-29T07:25:03,42.805,6.029,-0.082,-0.002,-0.02,105.0,104.0,103.0,13.4,1505.2,328.3,-0.7,1.8,2470.445,13.28,0.082,268.6
2021-06-29T07:28:03,42.805,6.029,-0.049,-0.003,-0.008,106.0,105.0,102.0,13.3,1505.2,326.8,-0.7,1.8,2470.483,13.28,0.049,266.5
2021-06-29T07:31:03,42.805,6.029,-0.035,0.0,-0.003,106.0,105.0,103.0,13.3,1505.2,326.0,-0.7,1.8,2470.505,13.28,0.035,270.0
2021-06-29T07:34:03,42.805,6.029,-0.048,-0.01,-0.034,106.0,104.0,104.0,13.4,1505.2,329.5,-0.7,1.8,2470.432,13.28,0.049,258.2
2021-06-29T07:37:03,42.805,6.029,-0.04,-0.01,-0.014,106.0,105.0,103.0,13.4,1505.2,328.1,-0.7,1.8,2470.517,13.28,0.041,256.0
2021-06-29T07:40:03,42.805,6.029,-0.034,0.013,0.006,105.0,106.0,102.0,13.4,1505.2,325.7,-0.7,1.8,2470.509,13.28,0.036,290.9
2021-06-29T07:43:03,42.805,6.029,-0.047,0.0,0.004,106.0,106.0,103.0,13.3,1505.2,329.4,-0.7,1.9,2470.467,13.28,0.047,270.0
2021-06-29T07:46:03,42.805,6.029,-0.058,-0.018,-0.018,107.0,105.0,103.0,13.4,1505.2,327.5,-0.8,1.8,2470.445,13.28,0.06,252.8
2021-06-29T07:49:03,42.805,6.029,-0.029,-0.012,-0.019,106.0,104.0,102.0,13.4,1505.2,325.7,-0.8,1.8,2470.45,13.28,0.031,247.5
2021-06-29T07:52:03,42.805,6.029,-0.043,0.001,-0.025,106.0,104.0,103.0,13.4,1505.2,326.7,-0.8,1.9,2470.464,13.28,0.043,271.3
2021-06-29T07:55:03,42.805,6.029,-0.058,0.007,-0.028,104.0,104.0,104.0,13.3,1505.2,328.4,-0.8,1.8,2470.464,13.28,0.058,276.9
2021-06-29T07:58:03,42.805,6.029,-0.03,-0.012,-0.007,105.0,106.0,104.0,13.3,1505.2,326.4,-0.7,1.8,2470.461,13.28,0.032,248.2
2021-06-29T08:04:03,42.805,6.029,-0.043,-0.024,-0.008,106.0,105.0,104.0,13.3,1505.2,326.5,-0.8,1.8,2470.504,13.28,0.049,240.8
2021-06-29T08:07:03,42.805,6.029,-0.05,0.004,-0.031,106.0,105.0,103.0,13.4,1505.2,325.6,-0.8,1.8,2470.503,13.28,0.05,274.6
2021-06-29T08:10:03,42.805,6.029,-0.084,-0.005,0.0,106.0,104.0,100.0,13.4,1505.2,327.2,-0.7,1.8,2470.503,13.28,0.084,266.6
2021-06-29T08:13:03,42.805,6.029,-0.061,-0.026,-0.003,106.0,105.0,100.0,13.4,1505.2,329.8,-0.8,1.8,2470.503,13.28,0.066,246.9
2021-06-29T08:16:03,42.805,6.029,-0.038,-0.002,-0.019,106.0,104.0,101.0,13.4,1505.2,327.1,-0.7,1.9,2470.501,13.28,0.038,267.0
2021-06-29T08:19:03,42.805,6.029,-0.033,0.005,-0.012,106.0,103.0,101.0,13.4,1505.2,324.9,-0.7,1.8,2470.482,13.28,0.033,278.6
2021-06-29T08:22:03,42.805,6.029,-0.035,0.0,0.018,106.0,102.0,101.0,13.4,1505.2,329.5,-0.7,1.8,2470.504,13.28,0.035,270.0
2021-06-29T08:25:03,42.805,6.029,-0.018,0.011,0.021,105.0,103.0,99.0,13.3,1505.2,328.3,-0.8,1.8,2470.507,13.28,0.021,301.4
2021-06-29T08:28:03,42.805,6.029,-0.027,-0.008,0.027,105.0,102.0,100.0,13.4,1505.2,327.0,-0.7,1.8,2470.496,13.28,0.028,253.5
2021-06-29T08:31:03,42.805,6.029,-0.059,-0.003,-0.021,109.0,103.0,99.0,13.4,1505.2,327.5,-0.7,1.8,2470.48,13.28,0.059,267.1
2021-06-29T08:34:03,42.805,6.029,-0.04,0.014,-0.039,106.0,102.0,100.0,13.4,1505.2,326.4,-0.7,1.8,2470.506,13.28,0.042,289.3
2021-06-29T08:37:03,42.805,6.029,-0.079,-0.001,-0.028,105.0,103.0,100.0,13.3,1505.2,329.5,-0.7,1.8,2470.536,13.28,0.079,269.3
2021-06-29T08:40:03,42.805,6.029,0.0,0.004,0.033,105.0,104.0,100.0,13.4,1505.2,328.5,-0.7,1.8,2470.554,13.28,0.004,0.0
2021-06-29T08:43:03,42.805,6.029,-0.007,0.0,0.038,105.0,105.0,101.0,13.4,1505.2,329.3,-0.8,1.8,2470.516,13.28,0.007,270.0
2021-06-29T08:46:03,42.805,6.029,-0.038,0.025,-0.022,104.0,103.0,100.0,13.4,1505.2,326.1,-0.8,1.9,2470.487,13.28,0.045,303.3
2021-06-29T08:49:03,42.805,6.029,-0.074,0.012,-0.039,105.0,102.0,100.0,13.4,1505.2,327.7,-0.8,1.8,2470.516,13.28,0.074,279.2
2021-06-29T08:52:03,42.805,6.029,-0.023,0.004,0.05,106.0,105.0,100.0,13.4,1505.2,325.6,-0.8,1.9,2470.496,13.28,0.023,279.9
2021-06-29T08:55:03,42.805,6.029,-0.034,-0.001,-0.018,104.0,103.0,101.0,13.4,1505.2,326.4,-0.8,1.9,2470.505,13.28,0.034,268.3
2021-06-29T08:58:03,42.805,6.029,-0.057,-0.004,-0.015,105.0,105.0,104.0,13.4,1505.2,324.8,-0.7,1.8,2470.491,13.28,0.057,266.0
2021-06-29T09:04:03,42.805,6.029,-0.035,-0.001,-0.003,105.0,105.0,103.0,13.4,1505.2,328.9,-0.8,1.8,2470.515,13.28,0.035,268.4
2021-06-29T09:07:03,42.805,6.029,-0.037,0.0,-0.008,106.0,105.0,103.0,13.4,1505.2,326.9,-0.8,1.8,2470.508,13.28,0.037,270.0
2021-06-29T09:10:03,42.805,6.029,-0.046,-0.006,-0.049,106.0,104.0,103.0,13.4,1505.2,324.9,-0.8,1.9,2470.506,13.28,0.046,262.6
2021-06-29T09:13:03,42.805,6.029,-0.046,-0.005,-0.022,106.0,104.0,108.0,13.4,1505.2,328.9,-0.7,1.8,2470.501,13.28,0.046,263.8
2021-06-29T09:16:03,42.805,6.029,-0.044,-0.01,-0.031,105.0,105.0,102.0,13.4,1505.2,326.5,-0.8,1.8,2470.496,13.28,0.045,257.2
2021-06-29T09:19:03,42.805,6.029,-0.039,0.0,-0.042,106.0,105.0,102.0,13.4,1505.2,326.9,-0.8,1.8,2470.501,13.28,0.039,270.0
2021-06-29T09:22:03,42.805,6.029,-0.045,0.008,-0.017,106.0,104.0,103.0,13.4,1505.2,325.2,-0.8,1.8,2470.515,13.28,0.045,280.1
2021-06-29T09:25:03,42.805,6.029,-0.043,-0.015,-0.014,105.0,105.0,103.0,13.4,1505.2,330.1,-0.8,1.8,2470.517,13.28,0.045,250.8
2021-06-29T09:28:03,42.805,6.029,-0.037,0.015,-0.016,105.0,104.0,104.0,13.4,1505.2,327.1,-0.8,1.8,2470.539,13.28,0.039,292.1
2021-06-29T09:31:03,42.805,6.029,-0.056,0.007,-0.033,105.0,104.0,103.0,13.3,1505.2,326.4,-0.7,1.8,2470.5,13.28,0.056,277.1
2021-06-29T09:34:03,42.805,6.029,-0.048,0.011,0.008,104.0,104.0,103.0,13.3,1505.2,328.7,-0.8,1.8,2470.51,13.28,0.049,282.9
2021-06-29T09:37:03,42.805,6.029,-0.045,-0.003,0.006,106.0,104.0,103.0,13.4,1505.2,330.6,-0.8,1.8,2470.518,13.28,0.045,266.2
2021-06-29T09:40:03,42.805,6.029,-0.052,-0.009,-0.022,106.0,105.0,102.0,13.4,1505.2,324.8,-0.8,1.8,2470.507,13.28,0.052,260.2
2021-06-29T09:43:03,42.805,6.029,-0.04,-0.008,-0.023,105.0,104.0,103.0,13.3,1505.2,324.9,-0.7,1.8,2470.508,13.28,0.04,258.7
2021-06-29T09:46:03,42.805,6.029,-0.051,0.015,-0.028,106.0,106.0,103.0,13.4,1505.2,328.4,-0.7,1.8,2470.519,13.28,0.053,286.4
2021-06-29T09:49:03,42.805,6.029,-0.061,0.003,-0.013,106.0,106.0,102.0,13.4,1505.2,329.2,-0.7,1.9,2470.523,13.28,0.061,272.8
2021-06-29T09:52:03,42.805,6.029,-0.055,0.003,-0.003,106.0,104.0,104.0,13.4,1505.2,327.3,-0.8,1.8,2470.505,13.28,0.055,273.1